When you browse on this site, cookies collect data to enhance your experience and personalize the content and advertising you see.
Visit our Privacy Policy to learn more. By continuing to use the site, you agree to this use of cookies and data.
  • In Switzerland
  • List of Countries
  • For 7 days
  • Water Temperature
  • Satellite Maps
  • Weather Map
  • Weather Widgets
  • user-avatar
    Login

    Hourly Weather Wunstorf

    Today, 24 May, Friday

    Time Temperature Precipitation Wind Pressure Humidity
    00:00 +13°C° 0 mm 2 mps 757 mmHg 71%
    01:00 +12°C° 0 mm 2 mps 757 mmHg 73%
    02:00 +12°C° 0 mm 2 mps 757 mmHg 77%
    03:00 +10°C° 0 mm 2 mps 757 mmHg 81%
    04:00 +10°C° 0 mm 2 mps 757 mmHg 85%
    05:00 +12°C° 0 mm 2 mps 757 mmHg 81%
    06:00 +13°C° 0 mm 2 mps 757 mmHg 78%
    07:00 +15°C° 0 mm 2 mps 757 mmHg 75%
    08:00 +16°C° 0 mm 3 mps 756 mmHg 70%
    09:00 +18°C° 0 mm 3 mps 756 mmHg 65%
    10:00 +20°C° 0 mm 4 mps 756 mmHg 60%
    11:00 +20°C° 0.1 mm 4 mps 756 mmHg 60%
    12:00 +21°C° 0.1 mm 4 mps 756 mmHg 60%
    13:00 +22°C° 0.1 mm 4 mps 756 mmHg 60%
    14:00 +22°C° 0.4 mm 4 mps 755 mmHg 61%
    15:00 +21°C° 0.4 mm 4 mps 755 mmHg 63%
    16:00 +21°C° 0.4 mm 4 mps 755 mmHg 64%
    17:00 +20°C° 0.3 mm 4 mps 755 mmHg 71%
    18:00 +18°C° 0.3 mm 4 mps 755 mmHg 77%
    19:00 +17°C° 0.3 mm 4 mps 755 mmHg 84%
    20:00 +14°C° 0 mm 3 mps 755 mmHg 86%
    21:00 +13°C° 0 mm 2 mps 756 mmHg 88%
    22:00 +10°C° 0 mm 2 mps 756 mmHg 91%
    23:00 +9°C° 0 mm 2 mps 756 mmHg 92%

    Tomorrow, 25 May, Saturday

    Time Temperature Precipitation Wind Pressure Humidity
    00:00 +9°C° 0 mm 2 mps 756 mmHg 94%
    01:00 +8°C° 0 mm 2 mps 756 mmHg 95%
    02:00 +8°C° 0 mm 2 mps 756 mmHg 96%
    03:00 +7°C° 0 mm 2 mps 756 mmHg 96%
    04:00 +7°C° 0 mm 2 mps 757 mmHg 96%
    05:00 +8°C° 0 mm 2 mps 757 mmHg 94%
    06:00 +9°C° 0 mm 2 mps 757 mmHg 92%
    07:00 +10°C° 0 mm 3 mps 757 mmHg 91%
    08:00 +11°C° 0 mm 3 mps 757 mmHg 88%
    09:00 +11°C° 0 mm 3 mps 757 mmHg 85%
    10:00 +12°C° 0 mm 3 mps 757 mmHg 82%
    11:00 +12°C° 0 mm 3 mps 757 mmHg 80%
    12:00 +13°C° 0 mm 3 mps 757 mmHg 78%
    13:00 +13°C° 0 mm 3 mps 757 mmHg 77%
    14:00 +13°C° 0 mm 3 mps 756 mmHg 77%
    15:00 +14°C° 0 mm 3 mps 756 mmHg 76%
    16:00 +14°C° 0 mm 3 mps 756 mmHg 76%
    17:00 +15°C° 0 mm 2 mps 756 mmHg 77%
    18:00 +15°C° 0 mm 2 mps 756 mmHg 79%
    19:00 +15°C° 0 mm 1 mps 756 mmHg 80%
    20:00 +13°C° 0 mm 1 mps 756 mmHg 83%
    21:00 +12°C° 0 mm 1 mps 756 mmHg 86%
    22:00 +9°C° 0 mm 0 mps 756 mmHg 89%
    23:00 +10°C° 0 mm 1 mps 756 mmHg 90%

    Day after tomorrow, 26 May, Sunday

    Time Temperature Precipitation Wind Pressure Humidity
    00:00 +10°C° 0 mm 1 mps 756 mmHg 92%
    01:00 +9°C° 0 mm 1 mps 756 mmHg 93%
    02:00 +9°C° 0 mm 1 mps 755 mmHg 93%
    03:00 +8°C° 0 mm 2 mps 755 mmHg 94%
    04:00 +8°C° 0 mm 2 mps 755 mmHg 95%
    05:00 +9°C° 0 mm 3 mps 755 mmHg 93%
    06:00 +10°C° 0 mm 3 mps 755 mmHg 91%
    07:00 +11°C° 0 mm 4 mps 754 mmHg 89%
    08:00 +11°C° 0 mm 4 mps 754 mmHg 88%
    09:00 +11°C° 0 mm 4 mps 754 mmHg 86%
    10:00 +11°C° 0 mm 4 mps 754 mmHg 84%
    11:00 +12°C° 0 mm 5 mps 753 mmHg 83%
    12:00 +14°C° 0 mm 5 mps 753 mmHg 83%
    13:00 +15°C° 0 mm 6 mps 753 mmHg 82%
    14:00 +15°C° 0 mm 6 mps 753 mmHg 82%
    15:00 +16°C° 0 mm 6 mps 752 mmHg 83%
    16:00 +16°C° 0 mm 6 mps 752 mmHg 83%
    17:00 +16°C° 0.1 mm 6 mps 752 mmHg 84%
    18:00 +16°C° 0.1 mm 5 mps 752 mmHg 85%
    19:00 +16°C° 0.1 mm 5 mps 751 mmHg 87%
    20:00 +15°C° 0.1 mm 5 mps 751 mmHg 88%
    21:00 +15°C° 0.1 mm 5 mps 751 mmHg 90%
    22:00 +15°C° 0.1 mm 5 mps 750 mmHg 91%
    23:00 +14°C° 0.2 mm 6 mps 750 mmHg 91%

    27 May, Monday

    Time Temperature Precipitation Wind Pressure Humidity
    00:00 +14°C° 0.2 mm 6 mps 749 mmHg 91%
    01:00 +14°C° 0.2 mm 7 mps 749 mmHg 91%
    02:00 +13°C° 0.1 mm 6 mps 749 mmHg 92%
    03:00 +13°C° 0.1 mm 6 mps 748 mmHg 93%
    04:00 +13°C° 0.1 mm 5 mps 748 mmHg 94%
    05:00 +13°C° 0.1 mm 6 mps 748 mmHg 93%
    06:00 +13°C° 0.1 mm 6 mps 748 mmHg 91%
    07:00 +14°C° 0.1 mm 6 mps 748 mmHg 90%
    08:00 +13°C° 0.1 mm 6 mps 749 mmHg 88%
    09:00 +12°C° 0.1 mm 7 mps 749 mmHg 87%
    10:00 +12°C° 0.1 mm 7 mps 750 mmHg 85%
    11:00 +14°C° 0.1 mm 7 mps 750 mmHg 79%
    12:00 +15°C° 0.1 mm 7 mps 750 mmHg 73%
    13:00 +16°C° 0.1 mm 7 mps 750 mmHg 66%
    14:00 +16°C° 0.1 mm 7 mps 750 mmHg 66%
    15:00 +16°C° 0.1 mm 7 mps 750 mmHg 65%
    16:00 +16°C° 0.1 mm 7 mps 750 mmHg 64%
    17:00 +15°C° 0 mm 6 mps 750 mmHg 67%
    18:00 +14°C° 0 mm 5 mps 751 mmHg 70%
    19:00 +14°C° 0 mm 3 mps 751 mmHg 74%
    20:00 +12°C° 0 mm 3 mps 751 mmHg 77%
    21:00 +11°C° 0 mm 3 mps 751 mmHg 80%
    22:00 +10°C° 0 mm 2 mps 751 mmHg 83%
    23:00 +9°C° 0 mm 2 mps 751 mmHg 84%

    28 May, Tuesday

    Time Temperature Precipitation Wind Pressure Humidity
    00:00 +9°C° 0 mm 2 mps 751 mmHg 84%
    01:00 +8°C° 0 mm 2 mps 751 mmHg 85%
    02:00 +8°C° 0 mm 2 mps 751 mmHg 86%
    03:00 +8°C° 0 mm 2 mps 751 mmHg 87%
    04:00 +7°C° 0 mm 2 mps 751 mmHg 89%
    05:00 +8°C° 0 mm 2 mps 751 mmHg 86%
    06:00 +10°C° 0 mm 2 mps 751 mmHg 84%
    07:00 +12°C° 0 mm 1 mps 751 mmHg 82%
    08:00 +13°C° 0.2 mm 2 mps 751 mmHg 79%
    09:00 +14°C° 0.2 mm 2 mps 751 mmHg 76%
    10:00 +15°C° 0.2 mm 2 mps 751 mmHg 73%
    11:00 +14°C° 0.8 mm 3 mps 752 mmHg 77%
    12:00 +14°C° 0.8 mm 3 mps 752 mmHg 81%
    13:00 +13°C° 0.8 mm 4 mps 752 mmHg 85%
    14:00 +13°C° 0.1 mm 4 mps 752 mmHg 81%
    15:00 +13°C° 0.1 mm 4 mps 752 mmHg 77%
    16:00 +14°C° 0.1 mm 4 mps 753 mmHg 73%
    17:00 +13°C° 0 mm 5 mps 753 mmHg 72%
    18:00 +12°C° 0 mm 5 mps 754 mmHg 71%
    19:00 +10°C° 0 mm 5 mps 754 mmHg 70%
    20:00 +10°C° 0 mm 4 mps 755 mmHg 72%
    21:00 +8°C° 0 mm 4 mps 755 mmHg 73%
    22:00 +7°C° 0 mm 3 mps 756 mmHg 75%
    23:00 +7°C° 0 mm 3 mps 756 mmHg 78%

    29 May, Wednesday

    Time Temperature Precipitation Wind Pressure Humidity
    00:00 +6°C° 0 mm 2 mps 757 mmHg 81%
    01:00 +5°C° 0 mm 2 mps 757 mmHg 85%
    02:00 +4°C° 0 mm 2 mps 757 mmHg 87%
    03:00 +5°C° 0 mm 1 mps 757 mmHg 89%
    04:00 +4°C° 0 mm 1 mps 757 mmHg 91%
    05:00 +6°C° 0 mm 1 mps 757 mmHg 86%
    06:00 +7°C° 0 mm 1 mps 758 mmHg 81%
    07:00 +9°C° 0 mm 1 mps 758 mmHg 77%
    08:00 +9°C° 0 mm 2 mps 758 mmHg 71%
    09:00 +10°C° 0 mm 2 mps 758 mmHg 65%
    10:00 +13°C° 0 mm 2 mps 757 mmHg 59%
    11:00 +12°C° 0 mm 3 mps 757 mmHg 59%
    12:00 +12°C° 0 mm 3 mps 757 mmHg 59%
    13:00 +12°C° 0 mm 3 mps 757 mmHg 59%
    14:00 +13°C° 0 mm 3 mps 757 mmHg 58%
    15:00 +13°C° 0 mm 3 mps 756 mmHg 57%
    16:00 +14°C° 0 mm 4 mps 756 mmHg 56%
    17:00 +13°C° 0.1 mm 3 mps 756 mmHg 62%
    18:00 +13°C° 0.1 mm 3 mps 756 mmHg 67%
    19:00 +12°C° 0.1 mm 3 mps 756 mmHg 73%
    20:00 +11°C° 0.1 mm 3 mps 756 mmHg 75%
    21:00 +10°C° 0.1 mm 2 mps 756 mmHg 78%
    22:00 +10°C° 0.1 mm 2 mps 756 mmHg 81%
    23:00 +9°C° 0 mm 2 mps 756 mmHg 84%
    Show more